Location: Campestrin
(46.4667°N, 11.7167°E)
Time: 06:18:44
(UTC+00:00)

RESURS DK-1 - Pass Details

Date: 18 April 2021
Orbit: 553 x 563 km, 69.9° (Epoch: 15 May)

Event Time Altitude Azimuth Distance (km) Brightness Sun altitude
Rises 18:38:31 0° 177° (S) 2,721 5.6 -6.2°
Reaches altitude 10° 18:40:56 10° 165° (SSE) 1,834 4.6 -6.6°
Maximum altitude 18:44:23 26° 108° (ESE) 1,109 3.3 -7.1°
Drops below altitude 10° 18:47:50 10° 51° (NE) 1,852 4.8 -7.7°
Sets 18:50:18 0° 39° (NE) 2,754 5.8 -8.1°
